Location: Scottsville
(37.8064°N, 78.4920°W)
Time: 04:48:55
(UTC+00:00)

ISS - Visible Passes

Search period start: 24 June 2024 00:00
Search period end: 04 July 2024 00:00
Orbit: 410 x 425 km, 51.6° (Epoch: 23 June)

Date Brightness Start Highest point End Pass type
(mag) Time Alt. Az. Time Alt. Az. Time Alt. Az.
24 Jun -1.4 07:13:46 17° ESE 07:13:46 17° ESE 07:15:05 10° E visible
24 Jun -2.7 08:46:41 15° W 08:49:08 38° NW 08:52:18 10° NE visible
25 Jun -3.7 08:00:20 50° W 08:00:59 67° NW 08:04:18 10° NE visible
26 Jun -2.6 07:13:54 39° ENE 07:13:54 39° ENE 07:16:10 10° NE visible
26 Jun -1.4 08:47:32 10° WNW 08:49:54 18° NNW 08:52:18 10° NNE visible
27 Jun -0.8 06:27:23 13° ENE 06:27:23 13° ENE 06:27:50 10° ENE visible
27 Jun -2.0 08:00:17 20° WNW 08:01:34 25° NNW 08:04:26 10° NNE visible
28 Jun -2.5 07:13:42 37° NNW 07:13:42 37° NNW 07:16:26 10° NE visible
28 Jun -0.8 08:49:52 10° NNW 08:50:46 11° NNW 08:51:38 10° N visible
29 Jun -1.3 06:27:03 21° NE 06:27:03 21° NE 06:28:19 10° NE visible
29 Jun -1.0 08:00:27 10° NW 08:02:15 14° NNW 08:04:03 10° NNE visible
30 Jun -1.4 07:13:12 18° NW 07:13:45 18° NNW 07:16:11 10° NNE visible
01 Jul -1.3 06:26:23 22° N 06:26:23 22° N 06:28:12 10° NNE visible
02 Jul -0.7 05:39:30 14° NE 05:39:30 14° NE 05:40:04 10° NE visible
02 Jul -0.7 07:13:20 10° NNW 07:14:20 11° NNW 07:15:20 10° N visible
03 Jul -0.9 06:25:24 14° NNW 06:25:42 14° NNW 06:27:35 10° NNE visible
